"SCET";"TARGET";"ELECTRON_DENSITY";"ERROR_FLAG";"ELECTRON_DENSITY_ERROR";"FREQ_FCE";"MEASURED_VALUE";"MEASURED_ITEM";"FREQ_PLASMA";"FREQ_UPPER_HYBRID";"FREQ_R_EQUALS_ZERO";"FREQ_L_EQUALS_ZERO";"ORBIT_NUMBER";"SATURN_RADIUS";"SATURN_IAU_LONGITUDE";"SATURN_SLS4_S_LONGITUDE";"SATURN_SLS4_N_LONGITUDE";"SATURN_SLS5_S_LONGITUDE";"SATURN_SLS5_N_LONGITUDE";"SATURN_LOCAL_TIME";"SATURN_KRONOGRAPHIC_LATITUDE";"SATURN_MAGNETIC_LATITUDE";"SATURN_L";"SATURN_L_OFFSET";"SATURN_SOLAR_EQUATORIAL_X";"SATURN_SOLAR_EQUATORIAL_Y";"SATURN_SOLAR_EQUATORIAL_Z";"SATURN_ALTITUDE";"ENCELADUS_ENCOUNTER_NUMBER";"ENCELADUS_RADIUS";"ENCELADUS_COROTATIONAL_X";"ENCELADUS_COROTATIONAL_Y";"ENCELADUS_COROTATIONAL_Z";"ENCELADUS_TRUE_ANOMALY";"ENCELADUS_PERIAPSIS_TIME";"JUPITER_RADIUS";"JUPITER_SYSTEMIII_LONGITUDE";"JUPITER_MAGNETIC_LATITUDE";"JUPITER_MAGNETIC_LOCAL_TIME";"JUPITER_L";"IO_PHASE";"EARTH_RADIUS";"EARTH_MAGNETIC_LATITUDE";"EARTH_LOCAL_TIME";"EARTH_L"
"[UTC]";"[0=Saturn, 1=Enceladus, 2=Jupiter, 3=Earth]";"[cm-3]";"[0=automated, 1=manual]";"[normalized density error]";"[Hz]";"[Hz]";"[0=upper hybrid frequency, 1=plasma frequency cutoff]";"[Hz]";"[Hz]";"[Hz]";"[Hz}";"[0, A, B, C, 3, 4, ... , 292, 293]";"[Rs where 1Rs=60268km]";"[degrees]";"[degrees]";"[degrees]";"[degrees]";"[degrees]";"[hours]";"[degrees]";"[degrees where offset=2293km north]";"[Rs where 1Rs=60268km]";"[Rs where 1Rs=60268km and offset=2293km north]";"[Rs where 1Rs=60268km]";"[Rs where 1Rs=60268km]";"[Rs where 1Rs=60268km]";"[km where ellipsoid a,b=60268km and c=54364km]";"[E0, E1, E2, ... , E21, E22]";"[Renc where 1Renc=252.1km]";"[Renc where 1Renc=252.1km]";"[Renc where 1Renc=252.1km]";"[Renc where 1Renc=252.1km]";"[degrees]";"[UTC]";"[Rj where 1Rj=71492km]";"[degrees]";"[degrees using JRM09 model]";"[hours using JRM09 model]";"[Rj where 1Rj=71492km]";"[degrees]";"[Re where 1Re=6378.1366km]";"[degrees]";"[hours]";"[Re where 1Re=6378.1366km]"
2008-09-10T07:51:42.551Z;0;1.7760e+01;0;     0.145;  8922.563;  38885.633; 0;  37848.121;  38885.633;  42571.430;  33648.867; 84;   4.009; 158.676; 127.131; 290.409;  60.230; 291.055;  22.497;   6.634;   6.094;   4.063;   4.000;  -3.678;   1.526;   0.463;;;;;;;;;;;;;;;;;;
2008-09-10T07:51:50.551Z;0;1.7710e+01;0;     0.127;  8922.563;  38833.527; 0;  37794.586;  38833.527;  42518.262;  33595.699; 84;   4.008; 158.743; 127.197; 290.476;  60.296; 291.122;  22.498;   6.605;   6.064;   4.062;   4.000;  -3.678;   1.526;   0.461;;;;;;;;;;;;;;;;;;
2008-09-10T07:51:58.551Z;0;1.8010e+01;0;     0.132;  8922.563;  39136.992; 0;  38106.324;  39136.992;  42827.871;  33905.305; 84;   4.008; 158.810; 127.263; 290.543;  60.362; 291.190;  22.498;   6.575;   6.035;   4.061;   4.000;  -3.678;   1.525;   0.459;;;;;;;;;;;;;;;;;;
2008-09-10T07:52:06.551Z;0;1.7780e+01;0;     0.136;  8922.563;  38898.375; 0;  37861.211;  38898.375;  42584.430;  33661.867; 84;   4.008; 158.876; 127.329; 290.611;  60.428; 291.258;  22.499;   6.546;   6.005;   4.061;   4.000;  -3.678;   1.525;   0.457;;;;;;;;;;;;;;;;;;
2008-09-10T07:52:14.551Z;0;1.7910e+01;0;     0.112;  8922.563;  39034.594; 0;  38001.148;  39034.594;  42723.410;  33800.844; 84;   4.008; 158.943; 127.394; 290.678;  60.494; 291.326;  22.500;   6.517;   5.976;   4.060;   3.999;  -3.679;   1.524;   0.455;;;;;;;;;;;;;;;;;;
2008-09-10T07:52:22.551Z;0;1.8240e+01;0;     0.127;  8922.563;  39378.129; 0;  38353.941;  39378.129;  43073.816;  34151.254; 84;   4.007; 159.010; 127.460; 290.745;  60.560; 291.393;  22.500;   6.487;   5.946;   4.059;   3.999;  -3.679;   1.524;   0.453;;;;;;;;;;;;;;;;;;
2008-09-10T07:52:30.551Z;0;1.8190e+01;0;     0.120;  8922.563;  39322.973; 0;  38297.312;  39322.973;  43017.566;  34095.004; 84;   4.007; 159.077; 127.526; 290.813;  60.627; 291.461;  22.501;   6.458;   5.917;   4.059;   3.999;  -3.679;   1.523;   0.450;;;;;;;;;;;;;;;;;;
2008-09-10T07:52:38.551Z;0;1.8480e+01;0;     0.130;  8922.563;  39622.691; 0;  38604.992;  39622.691;  43323.199;  34400.633; 84;   4.007; 159.144; 127.591; 290.880;  60.693; 291.529;  22.501;   6.428;   5.887;   4.058;   3.999;  -3.679;   1.523;   0.448;;;;;;;;;;;;;;;;;;
2008-09-10T07:52:46.551Z;0;1.9080e+01;0;     0.134;  8922.563;  40229.715; 0;  39227.770;  40229.715;  43941.922;  35019.355; 84;   4.007; 159.211; 127.657; 290.947;  60.759; 291.597;  22.502;   6.399;   5.858;   4.057;   3.999;  -3.679;   1.522;   0.446;;;;;;;;;;;;;;;;;;
2008-09-10T07:52:54.551Z;0;1.9240e+01;0;     0.126;  8922.563;  40388.992; 0;  39391.098;  40388.992;  44104.207;  35181.645; 84;   4.007; 159.277; 127.723; 291.014;  60.825; 291.664;  22.502;   6.369;   5.828;   4.056;   3.998;  -3.680;   1.521;   0.444;;;;;;;;;;;;;;;;;;
2008-09-10T07:53:02.551Z;0;1.9050e+01;0;     0.112;  8921.136;  40201.465; 0;  39199.121;  40201.465;  43912.664;  34991.527; 84;   4.006; 159.344; 127.789; 291.082;  60.891; 291.732;  22.503;   6.340;   5.799;   4.056;   3.998;  -3.680;   1.521;   0.442;;;;;;;;;;;;;;;;;;
2008-09-10T07:53:10.551Z;0;1.9440e+01;0;     0.121;  8921.136;  40582.867; 0;  39590.180;  40582.867;  44301.238;  35380.105; 84;   4.006; 159.411; 127.854; 291.149;  60.957; 291.800;  22.503;   6.311;   5.769;   4.055;   3.998;  -3.680;   1.520;   0.440;;;;;;;;;;;;;;;;;;
2008-09-10T07:53:18.551Z;0;1.9480e+01;0;     0.119;  8921.136;  40624.609; 0;  39632.969;  40624.609;  44343.758;  35422.621; 84;   4.006; 159.478; 127.920; 291.216;  61.023; 291.868;  22.504;   6.281;   5.740;   4.054;   3.998;  -3.680;   1.520;   0.438;;;;;;;;;;;;;;;;;;
2008-09-10T07:53:26.551Z;0;1.9350e+01;0;     0.105;  8921.136;  40496.039; 0;  39501.172;  40496.039;  44212.789;  35291.656; 84;   4.006; 159.545; 127.986; 291.284;  61.090; 291.935;  22.505;   6.252;   5.710;   4.054;   3.998;  -3.681;   1.519;   0.436;;;;;;;;;;;;;;;;;;
2008-09-10T07:53:34.551Z;0;1.9540e+01;0;     0.113;  8921.136;  40681.090; 0;  39690.859;  40681.090;  44401.289;  35480.152; 84;   4.005; 159.612; 128.051; 291.351;  61.156; 292.003;  22.505;   6.222;   5.681;   4.053;   3.997;  -3.681;   1.519;   0.434;;;;;;;;;;;;;;;;;;
2008-09-10T07:53:42.551Z;0;1.9560e+01;0;     0.126;  8921.136;  40701.078; 0;  39711.348;  40701.078;  44421.645;  35500.512; 84;   4.005; 159.678; 128.117; 291.418;  61.222; 292.071;  22.506;   6.193;   5.651;   4.052;   3.997;  -3.681;   1.518;   0.432;;;;;;;;;;;;;;;;;;
2008-09-10T07:53:50.551Z;0;1.9570e+01;0;     0.109;  8921.136;  40714.734; 0;  39725.344;  40714.734;  44435.555;  35514.418; 84;   4.005; 159.745; 128.183; 291.485;  61.288; 292.139;  22.506;   6.163;   5.622;   4.052;   3.997;  -3.681;   1.518;   0.430;;;;;;;;;;;;;;;;;;
2008-09-10T07:53:58.551Z;0;1.9840e+01;0;     0.102;  8921.136;  40981.395; 0;  39998.602;  40981.395;  44707.117;  35785.980; 84;   4.005; 159.812; 128.249; 291.553;  61.355; 292.206;  22.507;   6.134;   5.592;   4.051;   3.997;  -3.681;   1.517;   0.428;;;;;;;;;;;;;;;;;;
2008-09-10T07:54:06.550Z;0;1.9800e+01;0;     0.114;  8920.492;  40937.848; 0;  39954.125;  40937.848;  44662.559;  35742.066; 84;   4.004; 159.879; 128.314; 291.620;  61.421; 292.274;  22.507;   6.104;   5.563;   4.050;   3.996;  -3.682;   1.517;   0.426;;;;;;;;;;;;;;;;;;
2008-09-10T07:54:14.550Z;0;2.0020e+01;0;     0.108;  8920.492;  41156.398; 0;  40178.027;  41156.398;  44885.086;  35964.594; 84;   4.004; 159.946; 128.380; 291.687;  61.487; 292.342;  22.508;   6.075;   5.533;   4.050;   3.996;  -3.682;   1.516;   0.424;;;;;;;;;;;;;;;;;;
2008-09-10T07:54:22.550Z;0;1.9830e+01;0;     0.097;  8920.492;  40975.176; 0;  39992.371;  40975.176;  44700.570;  35780.078; 84;   4.004; 160.013; 128.446; 291.755;  61.554; 292.410;  22.508;   6.045;   5.503;   4.049;   3.996;  -3.682;   1.516;   0.421;;;;;;;;;;;;;;;;;;
2008-09-10T07:54:30.550Z;0;2.0070e+01;0;     0.116;  8920.492;  41207.461; 0;  40230.332;  41207.461;  44937.070;  36016.582; 84;   4.004; 160.079; 128.511; 291.822;  61.620; 292.477;  22.509;   6.016;   5.474;   4.048;   3.996;  -3.682;   1.515;   0.419;;;;;;;;;;;;;;;;;;
2008-09-10T07:54:38.550Z;0;2.1040e+01;0;     0.146;  8920.492;  42140.863; 0;  41185.887;  42140.863;  45886.941;  36966.449; 84;   4.004; 160.146; 128.577; 291.889;  61.686; 292.545;  22.509;   5.986;   5.444;   4.048;   3.996;  -3.682;   1.515;   0.417;;;;;;;;;;;;;;;;;;
2008-09-10T07:54:46.550Z;0;2.0410e+01;0;     0.113;  8920.492;  41536.527; 0;  40567.324;  41536.527;  45272.031;  36351.539; 84;   4.003; 160.213; 128.643; 291.956;  61.753; 292.613;  22.510;   5.957;   5.415;   4.047;   3.995;  -3.683;   1.514;   0.415;;;;;;;;;;;;;;;;;;
2008-09-10T07:54:54.550Z;0;2.1490e+01;0;     0.129;  8920.492;  42571.445; 0;  41626.348;  42571.445;  46324.867;  37404.375; 84;   4.003; 160.280; 128.708; 292.024;  61.819; 292.681;  22.511;   5.927;   5.385;   4.046;   3.995;  -3.683;   1.514;   0.413;;;;;;;;;;;;;;;;;;
2008-09-10T07:55:02.550Z;0;2.1200e+01;0;     0.129;  8919.651;  42296.992; 0;  41345.801;  42296.992;  46045.465;  37125.812; 84;   4.003; 160.347; 128.774; 292.091;  61.885; 292.748;  22.511;   5.898;   5.356;   4.046;   3.995;  -3.683;   1.513;   0.411;;;;;;;;;;;;;;;;;;
2008-09-10T07:55:10.550Z;0;2.1650e+01;0;     0.129;  8919.651;  42724.145; 0;  41782.680;  42724.145;  46479.848;  37560.199; 84;   4.003; 160.414; 128.840; 292.158;  61.952; 292.816;  22.512;   5.868;   5.326;   4.045;   3.995;  -3.683;   1.512;   0.409;;;;;;;;;;;;;;;;;;
2008-09-10T07:55:18.550Z;0;2.1840e+01;0;     0.129;  8919.651;  42900.336; 0;  41962.824;  42900.336;  46658.980;  37739.328; 84;   4.002; 160.480; 128.906; 292.226;  62.018; 292.884;  22.512;   5.839;   5.297;   4.044;   3.995;  -3.683;   1.512;   0.407;;;;;;;;;;;;;;;;;;
2008-09-10T07:55:26.550Z;0;2.1660e+01;0;     0.134;  8919.651;  42739.004; 0;  41797.875;  42739.004;  46494.957;  37575.305; 84;   4.002; 160.547; 128.971; 292.293;  62.085; 292.952;  22.513;   5.809;   5.267;   4.044;   3.994;  -3.684;   1.511;   0.405;;;;;;;;;;;;;;;;;;
2008-09-10T07:55:34.550Z;0;2.1820e+01;0;     0.138;  8919.651;  42881.129; 0;  41943.188;  42881.129;  46639.453;  37719.805; 84;   4.002; 160.614; 129.037; 292.360;  62.151; 293.019;  22.513;   5.780;   5.237;   4.043;   3.994;  -3.684;   1.511;   0.403;;;;;;;;;;;;;;;;;;
2008-09-10T07:55:42.550Z;0;2.1980e+01;0;     0.126;  8919.651;  43038.809; 0;  42104.379;  43038.809;  46799.746;  37880.094; 84;   4.002; 160.681; 129.103; 292.427;  62.218; 293.087;  22.514;   5.750;   5.208;   4.042;   3.994;  -3.684;   1.510;   0.401;;;;;;;;;;;;;;;;;;
2008-09-10T07:55:50.550Z;0;2.1940e+01;0;     0.131;  8919.651;  42999.812; 0;  42064.520;  42999.812;  46760.105;  37840.453; 84;   4.002; 160.748; 129.168; 292.495;  62.284; 293.155;  22.514;   5.721;   5.178;   4.042;   3.994;  -3.684;   1.510;   0.399;;;;;;;;;;;;;;;;;;
2008-09-10T07:55:58.550Z;0;2.2140e+01;0;     0.135;  8919.651;  43187.109; 0;  42255.961;  43187.109;  46950.488;  38030.836; 84;   4.001; 160.815; 129.234; 292.562;  62.351; 293.223;  22.515;   5.691;   5.149;   4.041;   3.994;  -3.685;   1.509;   0.397;;;;;;;;;;;;;;;;;;
2008-09-10T07:56:06.550Z;0;2.2040e+01;0;     0.145;  8919.035;  43086.680; 0;  42153.441;  43086.680;  46848.195;  37929.160; 84;   4.001; 160.881; 129.300; 292.629;  62.417; 293.290;  22.516;   5.662;   5.119;   4.040;   3.993;  -3.685;   1.509;   0.395;;;;;;;;;;;;;;;;;;
2008-09-10T07:56:14.550Z;0;2.2000e+01;0;     0.127;  8919.035;  43055.879; 0;  42121.961;  43055.879;  46816.887;  37897.852; 84;   4.001; 160.948; 129.366; 292.697;  62.484; 293.358;  22.516;   5.632;   5.089;   4.040;   3.993;  -3.685;   1.508;   0.392;;;;;;;;;;;;;;;;;;
2008-09-10T07:56:22.549Z;0;2.2440e+01;0;     0.140;  8919.035;  43461.180; 0;  42536.160;  43461.180;  47228.809;  38309.773; 84;   4.001; 161.015; 129.431; 292.764;  62.551; 293.426;  22.517;   5.603;   5.060;   4.039;   3.993;  -3.685;   1.508;   0.390;;;;;;;;;;;;;;;;;;
2008-09-10T07:56:30.549Z;0;2.2790e+01;0;     0.146;  8919.035;  43784.957; 0;  42866.926;  43784.957;  47557.785;  38638.750; 84;   4.000; 161.082; 129.497; 292.831;  62.617; 293.494;  22.517;   5.573;   5.030;   4.038;   3.993;  -3.685;   1.507;   0.388;;;;;;;;;;;;;;;;;;
2008-09-10T07:56:38.549Z;0;2.2850e+01;0;     0.143;  8919.035;  43844.387; 0;  42927.625;  43844.387;  47618.160;  38699.125; 84;   4.000; 161.149; 129.563; 292.898;  62.684; 293.561;  22.518;   5.543;   5.001;   4.038;   3.993;  -3.686;   1.507;   0.386;;;;;;;;;;;;;;;;;;
2008-09-10T07:56:46.549Z;0;2.3910e+01;0;     0.160;  8919.035;  44803.270; 0;  43906.535;  44803.270;  48591.945;  39672.910; 84;   4.000; 161.216; 129.628; 292.966;  62.750; 293.629;  22.518;   5.514;   4.971;   4.037;   3.992;  -3.686;   1.506;   0.384;;;;;;;;;;;;;;;;;;
2008-09-10T07:56:54.549Z;0;2.4130e+01;0;     0.149;  8919.035;  45003.305; 0;  44110.637;  45003.305;  48795.008;  39875.969; 84;   4.000; 161.282; 129.694; 293.033;  62.817; 293.697;  22.519;   5.484;   4.941;   4.037;   3.992;  -3.686;   1.505;   0.382;;;;;;;;;;;;;;;;;;
2008-09-10T07:57:02.549Z;0;2.3860e+01;0;     0.159;  8918.532;  44761.566; 0;  43864.082;  44761.566;  48549.430;  39630.898; 84;   4.000; 161.349; 129.760; 293.100;  62.884; 293.765;  22.519;   5.455;   4.912;   4.036;   3.992;  -3.686;   1.505;   0.380;;;;;;;;;;;;;;;;;;
2008-09-10T07:57:10.549Z;0;2.4230e+01;0;     0.143;  8918.532;  45093.363; 0;  44202.613;  45093.363;  48886.242;  39967.711; 84;   3.999; 161.416; 129.826; 293.168;  62.951; 293.832;  22.520;   5.425;   4.882;   4.035;   3.992;  -3.686;   1.504;   0.378;;;;;;;;;;;;;;;;;;
2008-09-10T07:57:18.549Z;0;2.4550e+01;0;     0.134;  8918.532;  45377.574; 0;  44492.516;  45377.574;  49174.688;  40256.156; 84;   3.999; 161.483; 129.891; 293.235;  63.017; 293.900;  22.520;   5.396;   4.853;   4.035;   3.992;  -3.686;   1.504;   0.376;;;;;;;;;;;;;;;;;;
2008-09-10T07:57:26.549Z;0;2.4920e+01;0;     0.136;  8918.532;  45709.570; 0;  44831.066;  45709.570;  49511.566;  40593.031; 84;   3.999; 161.550; 129.957; 293.302;  63.084; 293.968;  22.521;   5.366;   4.823;   4.034;   3.991;  -3.687;   1.503;   0.374;;;;;;;;;;;;;;;;;;
2008-09-10T07:57:34.549Z;0;2.6250e+01;0;     0.126;  8918.532;  46862.266; 0;  46005.777;  46862.266;  50680.656;  41762.121; 84;   3.999; 161.617; 130.023; 293.369;  63.151; 294.036;  22.522;   5.337;   4.793;   4.034;   3.991;  -3.687;   1.503;   0.372;;;;;;;;;;;;;;;;;;
2008-09-10T07:57:42.549Z;0;2.6120e+01;0;     0.136;  8918.532;  46753.059; 0;  45894.535;  46753.059;  50569.930;  41651.398; 84;   3.998; 161.683; 130.088; 293.437;  63.218; 294.103;  22.522;   5.307;   4.764;   4.033;   3.991;  -3.687;   1.502;   0.370;;;;;;;;;;;;;;;;;;
2008-09-10T07:57:50.549Z;0;2.6430e+01;0;     0.141;  8918.532;  47016.992; 0;  46163.375;  47016.992;  50837.520;  41918.988; 84;   3.998; 161.750; 130.154; 293.504;  63.284; 294.171;  22.523;   5.277;   4.734;   4.032;   3.991;  -3.687;   1.502;   0.368;;;;;;;;;;;;;;;;;;
2008-09-10T07:57:58.549Z;0;2.5990e+01;0;     0.138;  8918.532;  46639.285; 0;  45778.629;  46639.285;  50454.566;  41536.035; 84;   3.998; 161.817; 130.220; 293.571;  63.351; 294.239;  22.523;   5.248;   4.705;   4.032;   3.991;  -3.687;   1.501;   0.365;;;;;;;;;;;;;;;;;;
2008-09-10T07:58:06.549Z;0;2.6170e+01;0;     0.129;  8919.428;  46793.090; 0;  45935.141;  46793.090;  50610.836;  41691.410; 84;   3.998; 161.884; 130.286; 293.639;  63.418; 294.307;  22.524;   5.218;   4.675;   4.031;   3.990;  -3.688;   1.501;   0.363;;;;;;;;;;;;;;;;;;
2008-09-10T07:58:14.549Z;0;2.6220e+01;0;     0.129;  8919.428;  46840.512; 0;  45983.445;  46840.512;  50658.918;  41739.488; 84;   3.998; 161.951; 130.351; 293.706;  63.485; 294.374;  22.524;   5.189;   4.645;   4.031;   3.990;  -3.688;   1.500;   0.361;;;;;;;;;;;;;;;;;;
2008-09-10T07:58:22.549Z;0;2.6530e+01;0;     0.119;  8919.428;  47109.098; 0;  46257.008;  47109.098;  50931.211;  42011.781; 84;   3.997; 162.017; 130.417; 293.773;  63.552; 294.442;  22.525;   5.159;   4.616;   4.030;   3.990;  -3.688;   1.500;   0.359;;;;;;;;;;;;;;;;;;
2008-09-10T07:58:30.549Z;0;2.6630e+01;0;     0.120;  8919.428;  47194.188; 0;  46343.664;  47194.188;  51017.465;  42098.039; 84;   3.997; 162.084; 130.483; 293.840;  63.619; 294.510;  22.525;   5.129;   4.586;   4.029;   3.990;  -3.688;   1.499;   0.357;;;;;;;;;;;;;;;;;;
2008-09-10T07:58:38.549Z;0;2.6190e+01;0;     0.121;  8919.428;  46814.000; 0;  45956.441;  46814.000;  50632.039;  41712.609; 84;   3.997; 162.151; 130.548; 293.908;  63.685; 294.578;  22.526;   5.100;   4.556;   4.029;   3.990;  -3.688;   1.498;   0.355;;;;;;;;;;;;;;;;;;
2008-09-10T07:58:46.548Z;0;2.6540e+01;0;     0.121;  8919.428;  47112.469; 0;  46260.441;  47112.469;  50934.629;  42015.199; 84;   3.997; 162.218; 130.614; 293.975;  63.752; 294.645;  22.527;   5.070;   4.527;   4.028;   3.989;  -3.689;   1.498;   0.353;;;;;;;;;;;;;;;;;;
2008-09-10T07:58:54.548Z;0;2.6550e+01;0;     0.118;  8919.428;  47126.781; 0;  46275.020;  47126.781;  50949.137;  42029.707; 84;   3.997; 162.285; 130.680; 294.042;  63.819; 294.713;  22.527;   5.041;   4.497;   4.028;   3.989;  -3.689;   1.497;   0.351;;;;;;;;;;;;;;;;;;
2008-09-10T07:59:02.548Z;0;2.6340e+01;0;     0.122;  8920.101;  46939.695; 0;  46084.344;  46939.695;  50759.715;  41839.613; 84;   3.996; 162.352; 130.746; 294.109;  63.886; 294.781;  22.528;   5.011;   4.467;   4.027;   3.989;  -3.689;   1.497;   0.349;;;;;;;;;;;;;;;;;;
2008-09-10T07:59:10.548Z;0;2.6650e+01;0;     0.114;  8920.101;  47208.430; 0;  46358.039;  47208.430;  51032.141;  42112.043; 84;   3.996; 162.418; 130.811; 294.177;  63.953; 294.849;  22.528;   4.981;   4.438;   4.026;   3.989;  -3.689;   1.496;   0.347;;;;;;;;;;;;;;;;;;
2008-09-10T07:59:18.548Z;0;2.6640e+01;0;     0.105;  8920.101;  47196.070; 0;  46345.453;  47196.070;  51019.613;  42099.512; 84;   3.996; 162.485; 130.877; 294.244;  64.020; 294.917;  22.529;   4.952;   4.408;   4.026;   3.989;  -3.689;   1.496;   0.345;;;;;;;;;;;;;;;;;;
2008-09-10T07:59:26.548Z;0;2.7040e+01;0;     0.122;  8920.101;  47541.953; 0;  46697.637;  47541.953;  51370.188;  42450.090; 84;   3.996; 162.552; 130.943; 294.311;  64.087; 294.984;  22.529;   4.922;   4.378;   4.025;   3.988;  -3.690;   1.495;   0.343;;;;;;;;;;;;;;;;;;
2008-09-10T07:59:34.548Z;0;2.7050e+01;0;     0.116;  8920.101;  47544.812; 0;  46700.547;  47544.812;  51373.086;  42452.988; 84;   3.995; 162.619; 131.008; 294.379;  64.154; 295.052;  22.530;   4.893;   4.349;   4.025;   3.988;  -3.690;   1.495;   0.341;;;;;;;;;;;;;;;;;;
2008-09-10T07:59:42.548Z;0;2.6470e+01;0;     0.105;  8920.101;  47052.152; 0;  46198.883;  47052.152;  50873.723;  41953.621; 84;   3.995; 162.686; 131.074; 294.446;  64.221; 295.120;  22.530;   4.863;   4.319;   4.024;   3.988;  -3.690;   1.494;   0.338;;;;;;;;;;;;;;;;;;
2008-09-10T07:59:58.548Z;0;2.6840e+01;0;     0.109;  8920.101;  47371.102; 0;  46523.684;  47371.102;  51197.027;  42276.930; 84;   3.995; 162.819; 131.205; 294.580;  64.355; 295.255;  22.531;   4.804;   4.260;   4.023;   3.988;  -3.690;   1.493;   0.334;;;;;;;;;;;;;;;;;;
2008-09-10T08:00:06.548Z;0;2.6720e+01;0;     0.105;  8921.472;  47270.953; 0;  46421.441;  47270.953;  51096.008;  42174.535; 84;   3.995; 162.886; 131.271; 294.648;  64.421; 295.322;  22.532;   4.774;   4.230;   4.022;   3.988;  -3.690;   1.492;   0.332;;;;;;;;;;;;;;;;;;
2008-09-10T08:00:14.548Z;0;2.6720e+01;0;     0.117;  8921.472;  47266.457; 0;  46416.863;  47266.457;  51091.449;  42169.977; 84;   3.994; 162.953; 131.337; 294.715;  64.487; 295.390;  22.533;   4.745;   4.200;   4.022;   3.987;  -3.691;   1.492;   0.330;;;;;;;;;;;;;;;;;;
2008-09-10T08:00:22.548Z;0;2.6670e+01;0;     0.114;  8921.472;  47229.340; 0;  46379.066;  47229.340;  51053.824;  42132.355; 84;   3.994; 163.020; 131.403; 294.782;  64.553; 295.457;  22.533;   4.715;   4.171;   4.021;   3.987;  -3.691;   1.491;   0.328;;;;;;;;;;;;;;;;;;
2008-09-10T08:00:30.548Z;0;2.6720e+01;0;     0.113;  8921.472;  47271.180; 0;  46421.672;  47271.180;  51096.238;  42174.766; 84;   3.994; 163.087; 131.468; 294.850;  64.619; 295.524;  22.534;   4.685;   4.141;   4.021;   3.987;  -3.691;   1.491;   0.326;;;;;;;;;;;;;;;;;;
2008-09-10T08:00:38.548Z;0;2.7260e+01;0;     0.120;  8921.472;  47729.883; 0;  46888.688;  47729.883;  51561.133;  42639.660; 84;   3.994; 163.154; 131.534; 294.917;  64.684; 295.591;  22.534;   4.656;   4.111;   4.020;   3.987;  -3.691;   1.490;   0.324;;;;;;;;;;;;;;;;;;
2008-09-10T08:00:46.548Z;0;2.8020e+01;0;     0.114;  8921.472;  48368.660; 0;  47538.770;  48368.660;  52208.332;  43286.859; 84;   3.994; 163.220; 131.600; 294.984;  64.750; 295.658;  22.535;   4.626;   4.082;   4.020;   3.987;  -3.691;   1.490;   0.322;;;;;;;;;;;;;;;;;;
2008-09-10T08:00:54.548Z;0;2.8060e+01;0;     0.115;  8921.472;  48401.340; 0;  47572.020;  48401.340;  52241.434;  43319.965; 84;   3.993; 163.287; 131.665; 295.051;  64.815; 295.725;  22.535;   4.596;   4.052;   4.019;   3.986;  -3.692;   1.489;   0.320;;;;;;;;;;;;;;;;;;
2008-09-10T08:01:02.548Z;0;2.7890e+01;0;     0.108;  8922.761;  48254.328; 0;  47422.195;  48254.328;  52092.973;  43170.211; 84;   3.993; 163.354; 131.731; 295.119;  64.881; 295.792;  22.536;   4.567;   4.022;   4.019;   3.986;  -3.692;   1.489;   0.318;;;;;;;;;;;;;;;;;;
2008-09-10T08:01:10.547Z;0;2.8550e+01;0;     0.105;  8922.761;  48802.719; 0;  47980.098;  48802.719;  52648.449;  43725.688; 84;   3.993; 163.421; 131.797; 295.186;  64.947; 295.858;  22.536;   4.537;   3.992;   4.018;   3.986;  -3.692;   1.488;   0.316;;;;;;;;;;;;;;;;;;
2008-09-10T08:01:18.547Z;0;2.8610e+01;0;     0.107;  8922.761;  48851.957; 0;  48030.180;  48851.957;  52698.316;  43775.555; 84;   3.993; 163.488; 131.863; 295.253;  65.012; 295.925;  22.537;   4.507;   3.963;   4.018;   3.986;  -3.692;   1.488;   0.314;;;;;;;;;;;;;;;;;;
2008-09-10T08:01:26.547Z;0;2.8690e+01;0;     0.112;  8922.761;  48923.629; 0;  48103.074;  48923.629;  52770.898;  43848.141; 84;   3.993; 163.555; 131.928; 295.321;  65.078; 295.992;  22.537;   4.478;   3.933;   4.017;   3.986;  -3.692;   1.487;   0.311;;;;;;;;;;;;;;;;;;
2008-09-10T08:01:34.547Z;0;2.8940e+01;0;     0.097;  8922.761;  49122.359; 0;  48305.180;  49122.359;  52972.148;  44049.387; 84;   3.992; 163.621; 131.994; 295.388;  65.143; 296.059;  22.538;   4.448;   3.903;   4.017;   3.985;  -3.692;   1.486;   0.309;;;;;;;;;;;;;;;;;;
2008-09-10T08:01:42.547Z;0;2.9090e+01;0;     0.096;  8922.761;  49250.379; 0;  48435.359;  49250.379;  53101.777;  44179.016; 84;   3.992; 163.688; 132.060; 295.455;  65.209; 296.126;  22.539;   4.418;   3.874;   4.016;   3.985;  -3.693;   1.486;   0.307;;;;;;;;;;;;;;;;;;
2008-09-10T08:01:50.547Z;0;2.9270e+01;0;     0.103;  8922.761;  49393.426; 0;  48580.809;  49393.426;  53246.609;  44323.852; 84;   3.992; 163.755; 132.125; 295.522;  65.274; 296.193;  22.539;   4.389;   3.844;   4.015;   3.985;  -3.693;   1.485;   0.305;;;;;;;;;;;;;;;;;;
2008-09-10T08:01:58.547Z;0;2.9140e+01;0;     0.098;  8922.761;  49285.914; 0;  48471.492;  49285.914;  53137.758;  44214.996; 84;   3.992; 163.822; 132.191; 295.590;  65.340; 296.260;  22.540;   4.359;   3.814;   4.015;   3.985;  -3.693;   1.485;   0.303;;;;;;;;;;;;;;;;;;
2008-09-10T08:02:06.547Z;0;2.9330e+01;0;     0.112;  8923.601;  49441.684; 0;  48629.719;  49441.684;  53295.773;  44372.176; 84;   3.992; 163.889; 132.257; 295.657;  65.405; 296.326;  22.540;   4.329;   3.784;   4.014;   3.985;  -3.693;   1.484;   0.301;;;;;;;;;;;;;;;;;;
2008-09-10T08:02:14.547Z;0;2.9490e+01;0;     0.100;  8923.601;  49575.121; 0;  48765.375;  49575.121;  53430.867;  44507.270; 84;   3.991; 163.955; 132.322; 295.724;  65.471; 296.393;  22.541;   4.300;   3.755;   4.014;   3.985;  -3.693;   1.484;   0.299;;;;;;;;;;;;;;;;;;
2008-09-10T08:02:22.547Z;0;3.0780e+01;0;     0.131;  8923.601;  50613.621; 0;  49820.758;  50613.621;  54481.953;  45558.352; 84;   3.991; 164.022; 132.388; 295.792;  65.536; 296.460;  22.541;   4.270;   3.725;   4.013;   3.984;  -3.693;   1.483;   0.297;;;;;;;;;;;;;;;;;;